WW1TA Weather Reports


time (UTC)temp
C
wind
direction
speed
KPH
gust
KPH
rain 1hr
cm
rain 24hr
cm
rain mn
cm
humidity
%
barometer
mb
20260507032705 22 308 3.2 3.2 0.00 0.00 0.00 86 1015.9
20260507032200 22 280 3.2 8.0 0.00 0.00 0.00 86 1015.7
20260507031657 22 48 0.0 4.8 0.00 0.00 0.00 86 1015.3
20260507031154 22 54 3.2 3.2 0.00 0.00 0.00 87 1015.5
20260507030650 22 209 0.0 4.8 0.00 0.00 0.00 87 1015.4
20260507030149 22 339 0.0 3.2 0.00 0.00 0.00 87 1015.7
20260507025645 22 172 0.0 3.2 0.00 0.00 0.00 87 1015.9
20260507025142 22 245 0.0 3.2 0.00 0.00 0.00 87 1015.9
20260507024640 22 185 0.0 3.2 0.00 0.00 0.00 87 1015.8
20260507024137 22 213 0.0 9.7 0.00 0.00 0.00 87 1016.0
20260507023633 22 5 0.0 6.4 0.00 0.00 0.00 87 1015.4
20260507023130 22 296 0.0 6.4 0.00 0.00 0.00 86 1015.3
20260507022627 22 5 0.0 6.4 0.00 0.00 0.00 86 1015.5
20260507022122 22 228 1.6 4.8 0.00 0.00 0.00 86 1015.5
20260507021619 22 58 0.0 4.8 0.00 0.00 0.00 86 1015.7
20260507021115 22 235 0.0 3.2 0.00 0.00 0.00 86 1015.9
20260507020613 22 185 1.6 4.8 0.00 0.00 0.00 86 1016.0
20260507020109 22 225 0.0 3.2 0.00 0.00 0.00 86 1016.3
20260507015608 22 175 1.6 4.8 0.00 0.00 0.00 86 1016.0
20260507015105 22 77 0.0 3.2 0.00 0.00 0.00 86 1016.2
20260507014602 22 339 0.0 4.8 0.00 0.00 0.00 86 1016.1
20260507014057 22 335 1.6 4.8 0.00 0.00 0.00 86 1016.3
20260507013554 22 217 0.0 3.2 0.00 0.00 0.00 86 1016.4
20260507013051 22 293 0.0 3.2 0.00 0.00 0.00 87 1015.9
20260507012548 22 29 0.0 3.2 0.00 0.00 0.00 86 1016.3
20260507012044 22 5 1.6 3.2 0.00 0.00 0.00 86 1016.1
20260507011542 22 50 3.2 3.2 0.00 0.00 0.00 86 1016.3
20260507011032 22 269 0.0 3.2 0.00 0.00 0.00 86 1016.6
20260507010532 22 294 1.6 4.8 0.00 0.00 0.00 86 1016.3
20260507010024 22 121 0.0 8.0 0.00 0.00 0.00 86 1016.5
20260507005521 22 162 0.0 4.8 0.00 0.00 0.00 86 1016.3
20260507005017 22 205 0.0 3.2 0.00 0.00 0.00 85 1016.2
20260507004515 22 192 0.0 3.2 0.00 0.00 0.00 85 1016.1
20260507004012 22 178 1.6 6.4 0.00 0.00 0.00 85 1016.4
20260507003507 22 222 0.0 3.2 0.00 0.00 0.00 85 1016.0
20260507003002 22 291 1.6 4.8 0.00 0.00 0.00 85 1016.3
20260507002459 22 18 1.6 1.6 0.00 0.00 0.00 84 1016.2
20260507001955 22 113 0.0 4.8 0.00 0.00 0.00 83 1016.1
20260507001451 22 44 0.0 6.4 0.00 0.00 0.00 82 1016.0
20260507000944 23 326 0.0 4.8 0.00 0.00 0.00 81 1016.4
20260507000442 23 78 3.2 4.8 0.00 0.00 0.00 81 1016.3
20260506235935 23 136 0.0 4.8 0.00 0.00 0.00 80 1016.3
20260506235432 23 91 0.0 3.2 0.00 0.00 0.00 79 1016.5
20260506234927 23 289 1.6 3.2 0.00 0.00 0.00 77 1016.3
20260506234425 23 72 3.2 3.2 0.00 0.00 0.00 76 1016.3
20260506233923 23 1 3.2 3.2 0.00 0.00 0.00 75 1016.1
20260506233419 23 345 0.0 4.8 0.00 0.00 0.00 74 1016.0
20260506232916 23 195 0.0 3.2 0.00 0.00 0.00 73 1016.0
20260506232412 23 212 0.0 4.8 0.00 0.00 0.00 72 1016.2
20260506231908 23 284 1.6 11.3 0.00 0.00 0.00 71 1016.3
20260506231406 24 309 0.0 8.0 0.00 0.00 0.00 71 1016.5
20260506230903 24 225 0.0 3.2 0.00 0.00 0.00 70 1016.4
20260506230359 24 338 3.2 8.0 0.00 0.00 0.00 70 1016.6
20260506225855 24 309 1.6 4.8 0.00 0.00 0.00 70 1016.4
20260506225353 25 330 4.8 17.7 0.00 0.00 0.00 68 1016.5
20260506224850 25 315 3.2 4.8 0.00 0.00 0.00 69 1016.3
20260506224347 25 252 4.8 4.8 0.00 0.00 0.00 68 1016.6
20260506223843 25 309 1.6 6.4 0.00 0.00 0.00 69 1016.4
20260506223339 25 339 3.2 4.8 0.00 0.00 0.00 69 1016.1
20260506222837 26 337 3.2 4.8 0.00 0.00 0.00 67 1016.1
20260506222332 26 268 1.6 6.4 0.00 0.00 0.00 67 1016.0
20260506221830 26 288 3.2 6.4 0.00 0.00 0.00 66 1016.1
20260506221327 26 247 4.8 6.4 0.00 0.00 0.00 64 1016.1
20260506220825 26 101 4.8 4.8 0.00 0.00 0.00 64 1016.1
20260506220320 27 223 1.6 4.8 0.00 0.00 0.00 62 1015.9
20260506215817 27 188 0.0 4.8 0.00 0.00 0.00 62 1016.0
20260506215313 27 219 1.6 4.8 0.00 0.00 0.00 61 1016.1
20260506214809 27 58 1.6 4.8 0.00 0.00 0.00 62 1016.2
20260506214306 27 356 0.0 6.4 0.00 0.00 0.00 63 1016.2
20260506213804 28 170 3.2 3.2 0.00 0.00 0.00 60 1016.2
20260506213301 28 249 4.8 4.8 0.00 0.00 0.00 61 1016.3
20260506212758 28 253 0.0 6.4 0.00 0.00 0.00 61 1016.2
20260506212254 28 304 3.2 6.4 0.00 0.00 0.00 60 1016.2
20260506211749 28 38 1.6 4.8 0.00 0.00 0.00 60 1016.5
20260506211246 28 267 1.6 4.8 0.00 0.00 0.00 59 1016.4
20260506210743 28 215 1.6 8.0 0.00 0.00 0.00 57 1016.3
20260506210239 28 317 0.0 6.4 0.00 0.00 0.00 59 1016.4
20260506205737 28 243 6.4 11.3 0.00 0.00 0.00 58 1016.4
20260506205232 27 252 1.6 14.5 0.00 0.00 0.00 60 1016.4
20260506204729 28 269 3.2 6.4 0.00 0.00 0.00 58 1016.3
20260506204227 28 341 8.0 8.0 0.00 0.00 0.00 57 1016.4
20260506203724 28 222 1.6 4.8 0.00 0.00 0.00 56 1016.5
20260506203216 28 308 1.6 4.8 0.00 0.00 0.00 55 1016.5
20260506202713 29 314 1.6 8.0 0.00 0.00 0.00 55 1016.5
20260506202208 29 271 1.6 4.8 0.00 0.00 0.00 57 1016.6
20260506201701 28 252 0.0 6.4 0.00 0.00 0.00 59 1016.7
20260506201157 28 2 6.4 8.0 0.00 0.00 0.00 58 1016.7
20260506200654 28 261 4.8 8.0 0.00 0.00 0.00 59 1016.7
20260506200150 28 252 3.2 8.0 0.00 0.00 0.00 60 1016.9
20260506195647 29 323 4.8 6.4 0.00 0.00 0.00 58 1016.9
20260506195143 28 11 1.6 4.8 0.00 0.00 0.00 60 1016.9
20260506194641 29 358 1.6 6.4 0.00 0.00 0.00 59 1016.8
20260506194137 29 249 3.2 8.0 0.00 0.00 0.00 60 1016.9
20260506193635 28 263 3.2 6.4 0.00 0.00 0.00 57 1017.0
20260506193132 30 208 8.0 9.7 0.00 0.00 0.00 55 1016.5
20260506192629 28 105 0.0 4.8 0.00 0.00 0.00 57 1017.0
20260506192125 28 265 4.8 8.0 0.00 0.00 0.00 58 1017.1
20260506191622 29 347 3.2 6.4 0.00 0.00 0.00 57 1017.1
20260506191117 29 235 4.8 6.4 0.00 0.00 0.00 58 1017.2
20260506190615 29 102 0.0 6.4 0.00 0.00 0.00 58 1017.5
20260506190112 29 237 6.4 9.7 0.00 0.00 0.00 56 1017.4
20260506185609 30 271 3.2 6.4 0.00 0.00 0.00 57 1017.9
20260506185105 30 260 4.8 6.4 0.00 0.00 0.00 57 1017.7
20260506184602 30 242 4.8 4.8 0.00 0.00 0.00 57 1017.7
20260506184059 29 1 6.4 11.3 0.00 0.00 0.00 57 1017.8
20260506183550 29 285 1.6 8.0 0.00 0.00 0.00 56 1018.0
20260506183046 30 260 0.0 9.7 0.00 0.00 0.00 57 1018.1
20260506182543 29 343 0.0 6.4 0.00 0.00 0.00 57 1018.1
20260506182040 29 260 0.0 4.8 0.00 0.00 0.00 59 1018.2
20260506181538 29 258 1.6 9.7 0.00 0.00 0.00 60 1018.0
20260506181030 29 258 3.2 6.4 0.00 0.00 0.00 58 1018.1
20260506180526 28 163 1.6 4.8 0.00 0.00 0.00 60 1018.3
20260506180023 30 252 6.4 8.0 0.00 0.00 0.00 58 1018.2
20260506175520 30 240 0.0 8.0 0.00 0.00 0.00 58 1018.4
20260506175016 28 149 3.2 4.8 0.00 0.00 0.00 59 1018.3
20260506174514 29 142 0.0 3.2 0.00 0.00 0.00 59 1018.5
20260506174010 28 296 4.8 4.8 0.00 0.00 0.00 59 1018.6
20260506173508 28 340 3.2 4.8 0.00 0.00 0.00 59 1018.7
20260506173005 28 9 0.0 4.8 0.00 0.00 0.00 59 1018.6
20260506172502 28 258 3.2 4.8 0.00 0.00 0.00 58 1018.4
20260506171957 28 348 3.2 9.7 0.00 0.00 0.00 57 1018.5
20260506171456 29 241 4.8 8.0 0.00 0.00 0.00 56 1018.8
20260506170953 29 208 3.2 4.8 0.00 0.00 0.00 56 1018.9
20260506170449 29 122 4.8 8.0 0.00 0.00 0.00 57 1018.7
20260506165942 29 298 1.6 4.8 0.00 0.00 0.00 56 1018.8
20260506165441 29 284 4.8 6.4 0.00 0.00 0.00 58 1018.7
20260506164936 29 333 3.2 9.7 0.00 0.00 0.00 56 1018.6
20260506164433 29 265 1.6 6.4 0.00 0.00 0.00 57 1018.9
20260506163931 30 50 0.0 4.8 0.00 0.00 0.00 54 1018.7
20260506163425 29 248 1.6 4.8 0.00 0.00 0.00 54 1018.8
20260506162920 28 281 3.2 8.0 0.00 0.00 0.00 55 1018.7
20260506162418 28 29 3.2 4.8 0.00 0.00 0.00 56 1018.8
20260506161916 27 238 3.2 3.2 0.00 0.00 0.00 57 1018.8
20260506161414 27 273 1.6 8.0 0.00 0.00 0.00 57 1019.0
20260506160905 27 18 8.0 8.0 0.00 0.00 0.00 56 1019.0
20260506160402 27 267 0.0 8.0 0.00 0.00 0.00 56 1019.1
20260506155901 27 288 0.0 9.7 0.00 0.00 0.00 54 1019.2
20260506155357 27 250 4.8 8.0 0.00 0.00 0.00 53 1019.0
20260506153520 28 2 1.6 6.4 0.00 0.00 0.00 52 1019.0
20260506153017 28 292 3.2 8.0 0.00 0.00 0.00 51 1019.1
20260506152514 28 343 4.8 11.3 0.00 0.00 0.00 49 1019.1
20260506152012 28 347 4.8 11.3 0.00 0.00 0.00 50 1019.3
20260506151509 27 264 4.8 6.4 0.00 0.00 0.00 52 1019.3
20260506151007 27 297 1.6 16.1 0.00 0.00 0.00 52 1019.0
20260506150503 27 14 3.2 12.9 0.00 0.00 0.00 52 1019.2
20260506150000 27 327 4.8 9.7 0.00 0.00 0.00 53 1019.1
20260506145456 27 340 11.3 12.9 0.00 0.00 0.00 53 1019.2
20260506144954 27 311 3.2 4.8 0.00 0.00 0.00 53 1019.2
20260506144450 27 177 1.6 8.0 0.00 0.00 0.00 55 1019.0
20260506143948 27 245 6.4 6.4 0.00 0.00 0.00 55 1018.9
20260506143445 26 237 0.0 4.8 0.00 0.00 0.00 58 1018.9
20260506142944 26 251 3.2 11.3 0.00 0.00 0.00 58 1018.9
20260506142442 26 272 0.0 4.8 0.00 0.00 0.00 60 1019.0
20260506141939 26 267 3.2 6.4 0.00 0.00 0.00 61 1019.0
20260506141437 26 253 4.8 6.4 0.00 0.00 0.00 63 1019.0
20260506140935 26 301 1.6 4.8 0.00 0.00 0.00 61 1019.1
20260506140431 26 293 3.2 11.3 0.00 0.00 0.00 61 1019.0
20260506135928 26 333 6.4 6.4 0.00 0.00 0.00 61 1018.8
20260506135426 26 353 4.8 8.0 0.00 0.00 0.00 63 1018.6
20260506134922 25 318 4.8 9.7 0.00 0.00 0.00 65 1018.5
20260506134418 25 302 4.8 11.3 0.00 0.00 0.00 65 1018.9
20260506133917 24 283 0.0 8.0 0.00 0.00 0.00 67 1018.8
20260506133412 24 296 1.6 8.0 0.00 0.00 0.00 66 1018.9
20260506132908 24 346 6.4 6.4 0.00 0.00 0.00 68 1018.6
20260506132406 23 34 1.6 4.8 0.00 0.00 0.00 70 1018.8
20260506131904 23 70 0.0 8.0 0.00 0.00 0.00 71 1018.6
20260506131359 23 338 6.4 8.0 0.00 0.00 0.00 72 1018.7
20260506130857 22 318 3.2 8.0 0.00 0.00 0.00 74 1018.7
20260506130353 22 58 1.6 4.8 0.00 0.00 0.00 75 1018.7
20260506125851 22 265 1.6 8.0 0.00 0.00 0.00 76 1018.7
20260506125349 22 324 0.0 6.4 0.00 0.00 0.00 77 1018.8
20260506124847 21 281 0.0 3.2 0.00 0.00 0.00 79 1018.6
20260506124344 21 353 4.8 6.4 0.00 0.00 0.00 80 1018.5
20260506123841 21 317 0.0 4.8 0.00 0.00 0.00 81 1018.4
20260506123340 21 302 1.6 3.2 0.00 0.00 0.00 82 1018.4
20260506122837 20 303 3.2 4.8 0.00 0.00 0.00 84 1018.6
20260506122333 20 35 4.8 6.4 0.00 0.00 0.00 86 1018.7
20260506121832 19 279 0.0 6.4 0.00 0.00 0.00 91 1018.5
20260506121328 18 172 0.0 3.2 0.00 0.00 0.00 94 1018.2
20260506120826 18 358 6.4 6.4 0.00 0.00 0.00 97 1018.4
20260506120323 18 6 1.6 3.2 0.00 0.00 0.00 98 1018.4
20260506115820 18 320 0.0 1.6 0.00 0.00 0.00 98 1018.1
20260506115319 17 269 0.0 1.6 0.00 0.00 0.00 98 1018.3
20260506114816 17 60 0.0 0.0 0.00 0.00 0.00 98 1018.4
20260506114314 17 58 1.6 1.6 0.00 0.00 0.00 98 1018.1
20260506113812 16 103 0.0 0.0 0.00 0.00 0.00 98 1018.3
20260506113309 16 89 0.0 0.0 0.00 0.00 0.00 98 1018.3
20260506112806 16 94 0.0 0.0 0.00 0.00 0.00 98 1018.0
20260506112305 16 50 0.0 0.0 0.00 0.00 0.00 98 1017.9
20260506111801 16 130 0.0 0.0 0.00 0.00 0.00 98 1018.1
20260506111259 15 40 0.0 1.6 0.00 0.00 0.00 98 1018.0
20260506110756 15 77 0.0 1.6 0.00 0.00 0.00 98 1018.1
20260506110253 15 186 0.0 0.0 0.00 0.00 0.00 98 1018.1
20260506105749 15 145 0.0 1.6 0.00 0.00 0.00 98 1018.1
20260506105246 15 89 0.0 3.2 0.00 0.00 0.00 98 1018.0
20260506104744 15 129 0.0 0.0 0.00 0.00 0.00 98 1017.9
20260506104241 15 124 0.0 1.6 0.00 0.00 0.00 97 1018.1
20260506103738 15 128 0.0 1.6 0.00 0.00 0.00 98 1017.9
20260506103236 15 199 0.0 1.6 0.00 0.00 0.00 97 1017.9
20260506102733 15 81 0.0 1.6 0.00 0.00 0.00 97 1018.0
20260506102231 15 53 0.0 0.0 0.00 0.00 0.00 97 1017.8
20260506101728 15 129 0.0 0.0 0.00 0.00 0.00 97 1017.7
20260506101224 15 142 0.0 0.0 0.00 0.00 0.00 97 1017.7
20260506100722 15 310 0.0 1.6 0.00 0.00 0.00 97 1017.6
20260506100221 15 38 0.0 0.0 0.00 0.00 0.00 97 1017.7
20260506095718 16 172 0.0 1.6 0.00 0.00 0.00 97 1017.7
20260506095215 16 108 1.6 3.2 0.00 0.00 0.00 97 1017.7
20260506094712 16 131 0.0 0.0 0.00 0.00 0.00 96 1017.7
20260506094210 16 40 0.0 1.6 0.00 0.00 0.00 97 1017.6
20260506093709 16 89 0.0 0.0 0.00 0.00 0.00 96 1017.7
20260506093205 16 269 0.0 0.0 0.00 0.00 0.00 96 1017.8
20260506092703 16 129 0.0 0.0 0.00 0.00 0.00 96 1017.7
20260506092200 16 57 0.0 1.6 0.00 0.00 0.00 96 1017.8
20260506091658 16 142 0.0 0.0 0.00 0.00 0.00 95 1017.8
20260506091155 16 142 0.0 0.0 0.00 0.00 0.00 95 1017.8
20260506090653 16 142 0.0 0.0 0.00 0.00 0.00 95 1017.8
20260506090149 16 50 0.0 0.0 0.00 0.00 0.00 95 1017.8
20260506085646 16 50 0.0 0.0 0.00 0.00 0.00 94 1017.8
20260506085142 16 50 0.0 0.0 0.00 0.00 0.00 94 1017.9
20260506084639 17 37 0.0 1.6 0.00 0.00 0.00 95 1017.8
20260506084136 16 40 0.0 1.6 0.00 0.00 0.00 94 1018.0
20260506083633 16 89 0.0 1.6 0.00 0.00 0.00 94 1018.0
20260506083131 16 50 0.0 0.0 0.00 0.00 0.00 94 1017.9
20260506082627 16 50 0.0 0.0 0.00 0.00 0.00 94 1018.0
20260506082122 16 130 0.0 0.0 0.00 0.00 0.00 93 1018.0
20260506081621 16 130 0.0 0.0 0.00 0.00 0.00 93 1017.8
20260506081118 17 37 0.0 1.6 0.00 0.00 0.00 93 1017.8
20260506080616 17 103 0.0 0.0 0.00 0.00 0.00 93 1017.9
20260506080112 17 44 0.0 3.2 0.00 0.00 0.00 93 1017.7
20260506073056 17 22 0.0 1.6 0.00 0.00 0.00 91 1017.6
20260506072553 17 49 0.0 0.0 0.00 0.00 0.00 90 1017.5
20260506072051 17 37 0.0 1.6 0.00 0.00 0.00 90 1017.5
20260506071548 18 32 0.0 0.0 0.00 0.00 0.00 89 1017.6
20260506071046 17 6 0.0 0.0 0.00 0.00 0.00 90 1017.7
20260506070543 17 13 1.6 3.2 0.00 0.00 0.00 90 1017.7
20260506062017 16 55 0.0 1.6 0.00 0.00 0.00 94 1018.1
20260506061513 16 37 0.0 0.0 0.00 0.00 0.00 94 1017.8
20260506061011 16 103 0.0 1.6 0.00 0.00 0.00 94 1017.9
20260506060509 16 124 0.0 0.0 0.00 0.00 0.00 94 1017.8
20260506050938 16 77 0.0 0.0 0.00 0.00 0.00 91 1018.7
20260506050435 16 77 0.0 0.0 0.00 0.00 0.00 90 1018.7
20260506044925 16 129 0.0 0.0 0.00 0.00 0.00 89 1018.8
20260506044424 16 129 0.0 0.0 0.00 0.00 0.00 89 1019.0
20260506043920 16 62 0.0 1.6 0.00 0.00 0.00 89 1019.1
20260506043418 16 32 0.0 1.6 0.00 0.00 0.00 89 1018.6
20260506042915 16 129 0.0 0.0 0.00 0.00 0.00 88 1018.9
20260506042415 16 89 0.0 0.0 0.00 0.00 0.00 87 1018.9
20260506041913 16 50 0.0 0.0 0.00 0.00 0.00 86 1018.7
20260506041410 16 103 0.0 0.0 0.00 0.00 0.00 86 1018.8
20260506040907 16 103 0.0 0.0 0.00 0.00 0.00 86 1018.8
20260506040404 16 102 0.0 0.0 0.00 0.00 0.00 86 1018.8
20260506035900 16 102 0.0 1.6 0.00 0.00 0.00 85 1019.1
20260506035358 16 50 0.0 0.0 0.00 0.00 0.00 84 1018.9
20260506034854 16 50 0.0 1.6 0.00 0.00 0.00 84 1019.0
20260506034352 16 84 1.6 3.2 0.00 0.00 0.00 85 1018.6
20260506033849 16 147 0.0 1.6 0.00 0.00 0.00 86 1018.6
20260506033346 16 69 0.0 0.0 0.00 0.00 0.00 86 1018.8